Theta_e
323 323 322 324 325 327 328 328 328 328 328 328 328 328 327 327 327 327 326 327 327 327 327 326 325 325 324 322 321 321 321 321 321 321 321 319 317 314 312 311 310 310 310 310 309 309 309 309 309 309 309 309 309 309 309 309 309 310 311 312 313 313 313 312 312 312 311 311 313 314 314 314 313 312 312 312 312 313 313 312 312 312 312 313 312 312
324 324 323 324 325 327 327 327 328 328 328 328 328 328 328 327 327 327 327 327 327 327 327 326 325 324 323 322 321 321 321 322 321 320 318 315 313 311 310 310 310 310 310 309 309 309 309 309 309 309 309 309 309 309 309 309 309 310 311 312 312 312 313 313 313 312 311 311 312 313 313 313 313 313 313 313 313 313 313 312 312 311 312 312 312 312
325 325 324 324 325 326 327 327 327 327 327 327 328 328 328 328 327 327 327 327 327 327 326 325 324 323 322 321 321 321 322 321 319 317 315 312 311 310 310 310 310 309 309 309 309 309 309 308 308 308 309 309 309 309 309 309 309 309 310 311 311 312 312 312 312 311 311 310 311 312 312 312 312 312 312 313 312 312 312 312 311 311 312 312 312 311
326 326 325 324 325 326 326 326 327 327 327 327 327 327 328 328 327 327 327 327 327 326 326 325 323 322 321 321 321 322 322 320 318 316 313 312 311 310 310 310 309 309 309 309 308 308 308 308 308 308 309 309 308 308 308 308 309 309 310 310 310 311 311 311 310 310 310 309 310 311 312 311 311 311 311 311 312 312 311 311 311 310 310 310 310 310
327 327 325 325 325 325 326 326 326 326 327 327 327 327 327 327 327 327 327 327 327 326 325 324 323 322 321 321 322 322 321 320 319 317 314 313 311 310 310 309 309 309 309 308 308 308 308 308 308 309 309 308 308 308 308 308 309 309 309 309 309 309 309 309 309 309 308 309 309 310 311 311 311 310 310 310 310 310 311 311 311 310 309 309 309 309
328 327 326 325 325 325 325 325 326 326 326 326 327 327 327 327 327 327 327 327 326 325 324 323 323 322 322 322 322 322 321 321 320 318 316 314 312 311 310 310 309 309 308 308 308 308 308 308 308 308 308 308 308 308 308 308 308 308 308 308 308 308 308 308 309 308 308 308 308 309 309 310 310 310 310 310 310 310 310 310 310 310 310 309 309 308
327 327 326 325 325 325 325 325 325 325 326 326 327 327 327 327 326 326 326 326 325 325 324 323 322 322 322 322 322 322 322 321 320 319 317 315 314 313 311 311 310 309 308 308 308 308 308 308 308 308 308 307 307 307 307 308 308 308 308 308 307 308 308 308 308 308 307 307 307 308 308 309 310 310 310 310 310 310 309 309 310 310 310 309 309 308
327 326 326 325 325 324 324 324 324 325 326 326 327 327 327 326 326 326 326 325 325 324 323 323 322 322 322 321 321 321 321 321 320 319 318 317 316 314 313 312 311 310 308 308 308 308 308 308 308 308 307 307 307 307 307 307 307 307 307 307 307 307 308 308 308 307 307 307 307 307 308 308 309 309 309 309 309 309 309 309 309 310 310 309 309 308
327 326 325 325 324 324 324 324 324 325 325 326 326 326 326 326 326 325 325 324 324 323 323 322 322 322 321 321 321 320 320 319 319 319 318 318 317 316 315 314 312 310 309 308 308 308 308 308 308 307 307 307 307 307 307 307 307 306 306 306 306 307 307 307 307 307 306 306 307 307 307 307 308 308 308 308 308 308 308 308 308 309 309 308 308 308
326 325 325 324 324 324 324 324 324 325 325 325 325 325 325 325 325 325 324 323 323 323 322 322 322 321 321 321 320 319 318 318 318 318 318 318 317 317 316 315 313 311 309 308 308 308 308 308 307 307 307 307 307 307 307 307 306 306 306 306 306 307 307 307 307 307 306 306 306 306 306 307 307 307 307 307 308 308 308 307 307 307 307 307 307 307
325 324 324 324 324 324 324 325 325 325 325 324 324 324 324 324 323 323 323 323 322 322 322 321 321 321 320 319 318 317 317 317 317 318 318 318 317 317 316 315 314 311 309 309 308 308 308 308 308 307 307 307 307 307 308 307 306 306 305 306 306 307 308 308 307 306 306 306 306 306 306 306 306 306 307 307 307 307 307 307 307 307 307 307 307 307
324 323 322 323 323 324 324 324 324 324 323 323 323 323 323 322 322 321 321 321 321 321 321 320 320 320 319 318 317 316 316 316 316 317 317 317 317 316 316 315 313 311 309 309 308 308 308 308 308 308 307 307 307 307 308 308 307 306 306 306 306 307 308 307 307 306 306 305 306 306 306 306 306 306 306 306 307 307 307 307 307 307 307 307 307 307
323 322 322 322 323 323 323 323 322 321 322 323 323 323 323 322 322 321 320 319 319 319 319 319 319 318 318 317 316 315 315 315 315 316 316 316 316 315 315 314 312 311 309 308 308 308 308 308 309 309 308 307 307 307 308 308 307 306 306 306 306 306 307 307 306 306 306 305 306 306 306 306 306 306 306 306 306 306 306 306 306 306 306 306 306 306
323 322 322 322 322 322 323 323 322 321 322 323 324 324 323 323 322 320 319 317 317 317 317 317 317 317 316 315 315 315 315 314 314 315 315 315 314 314 313 312 311 310 308 308 308 308 308 308 309 309 309 308 307 307 308 308 307 307 306 306 306 306 306 306 306 306 306 306 306 306 306 306 306 306 306 306 306 306 306 306 306 306 306 306 306 306
323 322 322 322 322 322 322 322 322 322 323 323 323 323 322 321 320 319 317 316 316 316 316 316 316 316 315 315 314 314 314 313 313 313 313 313 313 312 311 310 309 308 308 308 308 307 308 309 309 309 309 308 308 308 308 308 307 307 306 306 306 306 306 306 306 306 306 306 306 306 306 306 306 306 306 306 306 306 306 306 306 306 306 306 306 306
323 323 322 322 322 322 322 322 322 322 323 323 322 321 321 320 319 318 317 316 316 317 317 316 316 315 314 314 313 313 313 312 312 312 312 312 311 311 310 308 308 308 307 307 307 307 308 308 309 309 309 309 308 308 308 308 307 307 306 306 306 306 306 306 306 306 306 306 306 306 306 306 306 306 306 306 306 306 306 306 306 306 306 306 306 306
322 322 322 323 323 322 322 322 322 322 323 322 322 321 320 319 318 318 317 317 317 317 317 316 315 315 314 313 312 312 312 311 311 311 310 310 309 309 309 307 307 307 307 307 307 307 308 308 309 309 309 308 308 308 308 307 307 307 306 306 306 306 306 306 306 305 305 305 305 305 305 305 305 306 306 305 305 305 305 305 305 305 305 305 305 305
321 322 322 323 323 323 322 322 322 322 322 322 321 320 319 318 318 317 317 317 317 317 316 316 315 314 314 312 311 310 310 310 310 309 308 308 308 308 307 307 307 307 307 307 307 307 308 308 309 309 309 308 308 308 307 307 306 306 306 305 305 305 305 305 305 305 305 305 305 305 305 305 305 305 305 305 305 305 305 305 305 305 305 305 305 305
321 322 322 322 323 323 322 322 322 323 322 321 320 319 318 317 317 316 316 316 316 316 316 315 314 313 312 311 310 309 309 309 309 308 307 307 307 307 307 306 306 306 306 307 307 307 308 308 308 309 308 308 308 307 307 306 306 306 305 305 305 305 305 305 305 305 305 305 305 305 305 305 305 305 305 305 305 305 305 305 305 305 305 304 304 305
321 322 322 322 322 322 322 322 323 323 322 321 319 318 317 316 316 316 315 315 315 315 314 313 313 311 310 309 308 308 308 308 307 307 306 306 306 306 306 306 306 306 306 306 307 307 307 308 308 308 308 308 308 307 306 306 306 305 305 305 305 305 305 305 305 305 305 305 305 305 305 305 305 305 305 304 304 304 304 304 304 304 304 304 304 304
322 322 322 322 322 322 322 322 322 322 321 319 318 316 316 315 315 315 315 314 314 313 312 312 310 309 308 307 307 307 307 306 306 306 306 306 306 306 306 306 306 306 306 307 307 308 308 308 308 308 308 307 307 306 306 306 305 305 305 305 305 305 305 305 305 305 305 305 305 305 305 305 305 304 304 304 304 304 304 303 304 304 304 304 304 304
322 322 322 322 322 322 322 322 321 320 318 317 316 315 315 315 315 314 314 313 313 312 311 309 308 307 307 306 306 306 306 305 306 306 306 305 306 305 305 305 306 307 307 307 307 308 308 308 308 308 307 307 306 306 306 305 305 305 305 305 305 305 305 305 305 305 305 305 305 305 305 304 304 304 304 304 303 303 303 303 303 303 303 303 303 303
321 321 321 321 321 321 320 319 319 318 316 315 314 314 314 314 314 313 312 312 311 310 309 308 307 306 305 305 305 305 305 305 305 305 305 305 305 305 305 305 306 307 307 307 307 307 307 307 307 307 306 306 306 306 306 305 305 305 305 305 305 305 305 305 305 305 305 304 304 304 304 304 304 304 304 303 303 303 303 303 303 302 302 302 302 302
321 321 320 320 320 319 317 317 316 315 314 314 314 313 313 312 312 311 310 309 308 308 307 306 305 305 305 305 305 304 305 305 305 305 305 305 305 305 305 305 306 306 306 306 306 306 306 306 306 306 306 306 306 306 306 306 305 305 305 305 305 305 305 304 304 304 304 304 304 304 304 304 304 303 303 303 303 303 303 303 303 303 302 302 302 302
320 319 319 318 317 316 315 315 315 314 314 314 314 313 313 312 311 310 309 308 307 306 305 305 305 305 305 304 304 305 305 305 305 305 305 305 305 305 305 305 305 306 305 305 305 305 306 306 305 306 305 305 306 306 306 306 305 305 305 305 305 305 304 304 304 304 304 304 303 303 303 303 303 303 303 303 303 303 303 302 302 302 302 302 302 302
318 317 317 316 316 315 314 314 314 314 314 314 314 313 312 311 310 309 308 307 306 305 305 305 304 305 304 304 304 305 305 305 305 305 305 306 306 306 306 305 305 306 305 305 305 305 305 305 305 305 305 305 306 306 306 306 305 305 305 305 304 304 304 304 304 303 303 303 303 303 302 302 302 302 302 302 302 301 301 301 301 301 301 301 301 301
316 316 315 315 314 314 314 314 314 314 314 314 313 312 311 310 309 307 307 306 305 305 304 304 304 304 304 304 304 305 305 305 305 305 305 306 306 306 306 305 306 306 306 305 305 305 305 305 305 305 305 305 305 305 305 305 305 305 305 304 304 304 304 303 303 303 303 303 302 302 302 301 301 301 301 301 301 300 300 300 300 300 300 300 300 300
315 314 314 314 314 314 313 313 313 313 313 312 311 310 309 308 307 306 306 305 305 304 304 304 304 304 304 304 304 305 305 305 305 305 305 305 306 306 306 306 306 306 306 306 306 305 305 305 305 305 305 305 305 305 305 305 305 304 304 304 304 304 304 303 303 303 303 303 302 302 302 302 301 301 301 301 300 300 300 299 299 299 299 299 299 300
314 314 314 314 313 313 313 313 313 312 311 310 309 308 307 306 305 305 305 305 304 304 304 304 304 305 305 304 304 305 305 305 305 305 305 305 306 306 306 306 306 306 306 306 306 305 305 305 305 305 305 305 305 304 304 304 304 304 304 304 304 304 304 303 303 303 303 303 303 303 302 302 302 302 301 301 300 300 299 299 299 298 298 298 298 298
313 313 314 313 313 313 313 312 311 310 309 308 307 306 305 304 304 304 304 304 304 304 304 304 304 304 305 305 305 305 305 305 305 305 305 305 306 306 306 306 306 306 306 306 306 305 305 305 305 305 305 305 305 305 304 304 304 304 304 304 304 304 304 304 303 303 303 303 303 303 302 302 302 301 301 300 300 299 299 298 298 298 298 297 297 297
313 314 314 314 313 313 312 311 310 308 307 306 305 304 304 304 304 304 304 304 304 304 304 304 304 304 305 305 305 305 305 305 305 305 305 305 305 305 305 305 305 306 306 306 305 305 305 305 304 305 305 305 305 305 304 304 304 304 304 304 304 303 303 303 303 303 303 302 302 302 301 301 301 300 299 299 299 298 298 297 297 297 297 297 296 296
314 314 314 313 312 311 310 309 307 306 305 304 304 304 304 304 304 304 304 304 304 304 304 304 305 305 305 305 305 305 305 305 305 305 305 305 305 305 305 305 305 305 305 305 305 305 304 305 304 304 304 304 304 304 304 304 303 303 303 303 303 303 303 302 302 302 302 301 301 301 300 300 299 299 298 297 297 296 296 296 295 295 295 296 296 296
313 313 312 311 310 308 307 306 305 304 304 304 303 304 304 304 304 304 304 304 304 304 304 304 305 305 305 305 305 305 305 305 305 304 304 304 304 304 304 304 304 304 304 304 304 304 304 304 304 304 303 303 303 303 303 302 302 302 302 302 301 301 301 301 301 300 300 300 300 299 298 298 297 297 296 296 295 294 294 294 293 293 293 294 294 294
312 310 309 308 307 306 305 304 304 303 303 303 304 304 304 304 304 304 304 304 304 304 304 305 305 305 305 305 305 305 304 304 304 304 304 304 304 304 304 303 303 303 303 303 303 303 303 302 302 302 302 302 301 301 301 301 300 300 300 300 300 300 300 300 299 299 299 298 298 297 297 296 295 295 294 293 293 292 292 292 291 291 291 291 292 292
309 308 306 306 305 304 304 304 304 304 304 304 304 304 304 304 304 304 304 304 304 304 304 304 305 305 305 305 305 305 304 304 303 303 303 303 303 303 303 303 303 303 302 302 302 302 301 301 301 301 300 300 299 299 299 299 299 298 298 298 298 298 298 298 297 297 296 296 296 295 294 294 293 293 292 292 291 291 290 290 290 290 290 290 290 290
307 305 305 304 304 304 304 304 304 304 304 304 304 304 304 304 304 304 304 304 304 304 304 304 304 304 304 304 304 304 304 304 303 303 303 303 302 302 302 302 302 301 301 301 301 300 300 300 299 299 298 298 298 297 297 297 296 296 296 296 296 296 295 295 295 294 294 294 293 293 292 292 291 291 290 290 290 290 289 289 289 289 289 288 288 289
305 304 304 304 304 304 304 304 304 304 304 304 304 304 304 304 304 304 304 304 304 304 304 303 303 303 303 303 303 302 302 302 302 302 302 301 301 301 301 301 300 300 300 299 299 299 298 298 297 297 296 296 295 295 294 294 294 293 293 293 293 293 293 293 293 292 292 291 291 291 290 290 290 289 289 289 289 289 289 289 289 288 288 288 288 288
304 304 304 304 304 304 304 304 304 304 304 304 304 304 304 304 304 304 304 303 303 303 303 303 303 302 302 302 302 301 301 301 301 300 300 300 300 300 299 299 299 299 298 298 298 297 297 296 296 295 294 294 293 293 292 292 292 291 291 291 292 292 292 291 291 291 290 290 290 290 289 289 289 289 289 289 289 289 289 289 288 288 288 288 288 288
304 304 304 304 304 304 304 304 304 304 304 304 304 304 304 304 303 303 303 303 302 302 302 302 302 302 302 301 301 301 301 301 300 300 300 299 299 299 299 298 298 298 298 297 297 296 296 295 295 294 293 293 292 292 291 291 290 290 290 290 290 290 291 291 290 290 290 290 290 289 289 289 289 289 289 289 289 289 289 289 289 288 288 288 288 287
304 304 304 304 303 304 304 304 304 304 304 303 303 303 303 303 303 302 302 302 301 301 301 301 301 301 301 301 301 301 301 300 300 300 299 299 299 299 299 298 298 297 297 297 297 296 296 295 295 294 293 292 291 291 291 290 290 290 289 289 289 289 290 290 290 290 290 290 289 289 289 289 289 289 289 289 289 289 289 289 288 288 288 288 288 288
303 303 303 303 303 303 303 303 303 303 303 303 303 303 302 302 302 302 302 301 301 301 301 301 301 301 301 301 301 300 300 300 300 300 299 299 299 299 299 298 298 297 297 297 296 296 295 295 294 294 293 292 291 291 290 290 290 289 289 289 289 289 289 289 289 289 289 289 289 289 289 289 289 289 289 289 289 289 289 289 289 289 288 288 288 288
303 303 303 303 303 302 302 302 302 302 302 302 302 302 301 301 301 301 300 300 300 300 300 300 300 300 300 301 300 300 300 300 299 299 299 299 299 298 298 298 298 297 297 296 296 295 295 294 294 293 292 292 291 290 290 290 290 289 289 289 288 288 289 289 289 289 289 289 289 289 289 289 289 289 289 289 289 289 289 289 289 289 289 288 288 288
303 303 303 303 302 302 302 302 302 302 301 301 301 301 300 300 300 300 300 300 300 300 300 300 300 300 300 300 300 299 299 299 299 299 298 298 298 298 297 297 297 297 297 296 295 295 294 294 293 292 292 291 290 290 289 289 289 289 289 289 288 288 288 288 289 289 289 289 289 289 289 289 289 289 289 289 289 289 289 289 289 289 289 289 288 288
303 302 302 302 302 302 302 301 301 301 301 300 300 300 299 299 299 299 299 299 299 299 299 299 299 299 299 299 299 299 299 298 298 298 297 297 297 297 296 296 296 296 296 295 295 294 293 293 292 291 291 290 290 289 289 289 289 289 289 289 289 289 288 288 288 288 288 288 288 288 288 289 289 289 289 289 289 289 289 290 290 290 289 289 289 288
302 302 302 302 302 301 301 301 300 300 300 300 299 299 299 298 298 299 299 299 299 299 299 299 299 299 299 299 299 298 298 298 297 297 297 296 296 296 296 295 295 295 294 294 293 293 292 291 291 290 290 290 289 289 289 289 289 289 289 289 289 289 289 289 289 289 289 289 289 289 288 288 288 288 288 289 289 289 289 290 290 290 290 289 289 289
302 302 301 301 301 301 300 300 300 299 299 299 299 298 298 298 298 298 298 298 298 298 298 298 298 298 298 298 298 298 298 297 297 296 296 296 295 295 295 295 294 294 293 293 292 292 291 291 291 290 290 290 290 290 290 290 290 290 290 290 290 290 290 290 290 290 290 290 290 289 289 289 289 288 288 288 289 289 289 289 289 290 290 290 289 289
301 301 301 300 300 300 300 299 299 299 298 298 298 298 297 297 297 297 297 297 297 297 297 297 297 298 298 297 297 297 297 297 296 296 296 295 295 295 294 294 294 293 293 293 292 292 291 291 291 291 291 291 291 291 291 291 291 291 291 291 292 292 292 292 292 291 291 291 291 291 290 290 290 289 289 288 288 289 289 289 289 289 289 289 289 289
301 301 300 300 299 299 299 298 298 298 298 298 298 297 297 297 297 297 297 297 297 297 297 297 297 297 297 297 297 297 297 297 296 296 295 295 295 295 294 294 294 294 293 293 293 293 292 292 292 292 292 293 293 293 293 293 293 293 293 293 293 293 293 293 293 293 293 293 293 293 292 292 291 291 290 289 289 289 289 289 289 289 289 289 289 289
300 300 300 299 299 299 298 298 298 298 298 297 297 297 297 297 297 297 297 297 296 296 296 296 296 297 297 297 297 297 296 296 296 296 295 295 295 295 295 295 295 294 294 294 294 294 294 294 294 294 294 294 294 294 294 294 294 294 294 294 294 294 294 294 294 294 294 294 294 294 294 294 294 293 292 291 290 290 290 290 289 289 289 289 289 289
300 299 299 299 299 298 298 298 298 298 297 297 297 297 297 297 296 296 296 296 296 296 296 296 296 296 296 296 296 296 296 296 296 296 296 296 296 296 296 296 296 295 295 295 295 295 295 295 295 295 295 295 295 295 295 295 295 295 294 294 294 294 294 294 294 294 294 294 295 295 295 295 295 295 294 293 292 291 290 290 290 290 289 289 289 288
299 299 299 299 298 298 298 298 298 297 297 297 297 297 297 297 296 296 296 296 296 296 296 296 296 296 296 296 296 296 296 296 296 296 296 296 296 296 296 296 296 296 296 296 296 296 295 295 295 295 295 295 295 295 295 295 295 294 294 294 294 294 294 294 294 294 294 294 294 294 295 295 295 295 295 294 294 293 292 291 291 290 290 289 289 289
Wind_Speed
26 26 27 30 33 36 36 35 35 35 35 35 34 34 33 32 31 30 30 30 31 31 31 30 29 28 27 26 25 24 23 22 21 20 20 20 20 20 20 20 20 20 20 20 20 20 21 21 21 20 19 16 12 9 6 5 6 8 9 9 8 9 9 7 5 3 2 2 5 7 7 5 4 3 3 3 4 5 4 3 3 5 7 8 9 10
28 28 29 31 34 35 36 35 35 35 35 35 35 35 34 33 32 31 31 31 32 32 32 31 30 29 28 27 25 24 23 22 20 19 19 19 19 19 19 19 19 19 19 19 19 20 20 20 20 18 15 12 9 7 6 6 8 11 12 12 11 10 9 7 6 5 5 4 5 7 8 8 8 7 6 6 6 6 6 6 6 7 8 9 9 9
30 29 30 32 34 35 36 35 35 34 34 35 35 35 35 35 34 33 32 32 33 33 33 31 30 29 28 27 26 25 24 21 19 17 17 18 18 18 18 18 18 18 18 18 18 19 19 19 17 15 12 9 7 6 6 8 10 12 13 14 13 11 9 8 7 6 7 8 7 6 7 8 9 10 10 9 9 9 9 9 9 8 8 7 7 6
30 30 31 32 34 35 36 36 35 35 34 34 34 35 35 35 35 34 33 33 33 34 33 32 31 30 29 28 27 26 24 21 18 17 16 17 17 17 17 17 17 17 17 17 17 18 18 17 14 11 9 7 7 7 7 9 10 12 13 14 13 12 10 8 7 7 8 9 10 10 9 7 7 8 9 10 10 10 10 10 9 8 6 5 4 4
31 31 31 33 34 36 36 36 35 35 34 34 35 35 35 35 35 35 34 34 34 34 33 32 31 30 29 28 28 26 24 21 19 17 16 16 16 16 16 16 17 17 17 17 17 17 16 14 11 8 7 7 7 7 8 9 9 10 12 13 13 12 10 9 7 7 7 9 11 12 13 12 10 8 7 8 8 9 9 9 9 8 5 4 4 4
31 31 32 33 35 37 37 37 36 35 35 35 35 35 35 35 35 35 35 34 34 33 33 32 32 31 30 29 28 27 24 22 20 18 17 16 16 16 16 16 17 17 17 16 16 16 14 11 8 7 7 7 8 8 8 9 9 9 10 10 11 10 9 8 7 7 7 7 9 12 14 14 14 12 11 10 9 8 8 9 10 9 8 6 5 5
32 32 32 34 36 38 38 37 37 36 36 36 36 36 36 36 36 36 35 34 34 33 33 32 32 31 30 29 28 26 24 23 21 20 19 18 17 17 17 17 18 17 16 16 15 14 12 9 8 7 7 7 8 8 8 9 9 9 8 8 8 8 8 7 7 7 7 7 8 10 12 14 15 15 14 13 12 11 10 10 11 12 11 10 9 8
33 33 33 35 37 38 38 37 37 37 36 36 36 36 36 37 37 36 35 35 34 33 33 33 32 32 30 29 27 26 24 23 22 21 20 20 20 19 19 19 19 18 16 15 14 13 10 9 8 7 7 7 7 7 7 8 8 8 7 7 7 7 7 7 7 7 7 6 6 7 9 12 13 14 14 14 13 12 11 11 11 12 12 11 10 10
34 34 34 36 37 37 37 37 37 37 37 36 36 36 37 37 37 36 35 35 34 34 33 33 32 31 30 28 26 25 24 23 22 22 22 22 22 22 21 21 19 18 16 14 13 12 10 9 8 7 7 7 7 7 7 7 7 6 6 7 7 8 8 8 8 7 6 6 6 6 7 9 10 12 12 12 11 10 10 10 10 11 11 11 10 10
35 35 35 36 37 37 37 37 38 38 37 37 36 36 36 36 37 36 36 35 35 35 35 34 32 31 29 27 25 24 22 22 22 23 23 23 24 23 22 21 19 17 15 13 13 12 11 10 9 7 7 7 7 8 8 7 6 5 5 6 7 8 9 9 9 7 6 6 6 6 6 7 9 10 11 11 11 10 10 10 10 10 11 10 10 10
36 36 36 36 36 37 37 37 38 39 38 37 36 35 36 36 36 36 36 36 36 36 35 34 32 29 27 25 24 23 21 21 21 22 23 24 24 23 22 20 19 16 14 13 13 13 12 11 9 8 8 7 7 8 9 9 7 5 4 5 7 8 9 9 9 8 7 6 6 6 6 7 8 9 10 11 11 11 11 11 11 11 11 11 11 10
36 37 38 37 36 36 37 38 39 39 38 37 36 36 36 37 36 36 35 35 35 34 33 32 30 28 25 23 21 21 20 20 20 21 22 23 23 22 21 19 18 16 13 12 13 14 13 11 11 11 10 8 7 7 9 9 7 5 4 5 7 8 9 9 9 8 8 7 7 7 7 7 8 8 9 10 11 12 12 12 13 13 13 13 13 12
38 38 39 39 37 37 37 37 38 39 39 38 38 38 38 37 37 36 35 34 33 32 29 27 26 25 24 22 21 20 19 18 19 20 21 21 21 20 18 17 16 14 12 13 14 15 14 13 13 13 12 10 7 7 9 9 8 6 5 6 7 8 9 9 9 9 9 8 8 8 8 8 8 9 9 10 10 11 12 12 13 13 13 13 14 13
39 39 40 40 39 37 37 37 38 39 40 40 40 39 37 36 36 35 34 32 30 28 26 23 22 22 22 21 20 19 18 17 18 19 19 18 18 17 16 14 13 13 12 14 17 17 15 15 15 16 15 12 10 9 10 10 9 7 6 6 7 9 10 10 10 10 9 9 8 9 9 10 10 10 10 10 10 11 11 12 12 12 13 13 13 14
41 40 40 40 39 38 37 37 38 39 40 40 38 36 35 35 34 33 31 28 26 24 23 22 22 21 21 19 19 18 17 16 16 16 16 16 16 15 13 12 12 12 13 16 18 18 16 15 16 18 18 15 13 12 12 12 10 9 7 7 8 10 11 11 11 10 9 9 9 10 10 11 11 11 12 11 11 11 11 11 11 12 12 12 12 13
41 41 40 39 38 38 38 39 39 39 40 39 37 36 35 34 34 32 29 26 24 24 23 22 21 20 20 19 18 17 16 15 14 14 14 13 14 14 12 11 11 13 16 18 19 18 16 15 17 19 19 17 15 13 13 12 10 9 8 8 9 11 12 12 12 11 11 10 10 11 11 12 12 13 13 12 12 12 12 12 11 11 11 11 11 12
42 42 40 39 39 40 40 40 40 39 38 38 36 35 34 33 32 30 28 26 25 25 24 23 21 19 18 18 17 16 15 13 13 13 13 12 12 12 11 11 12 15 17 19 19 17 15 15 17 18 18 16 14 13 12 11 9 8 7 8 10 12 13 12 12 12 12 12 12 12 13 13 14 14 13 13 12 12 12 12 12 11 11 11 11 11
45 44 42 40 40 40 40 39 38 37 37 37 36 35 33 32 30 29 28 27 26 25 24 22 21 19 18 17 16 15 14 13 12 12 12 11 11 11 11 11 13 15 17 19 19 17 15 15 17 18 18 16 14 12 11 9 8 7 7 9 12 13 13 13 12 12 12 12 13 13 14 15 15 15 14 14 13 13 12 12 12 12 11 11 11 11
46 45 43 41 40 40 39 38 36 35 35 36 36 35 33 32 30 28 27 26 25 23 22 20 19 18 17 15 15 14 13 12 12 12 11 11 11 11 12 12 14 16 17 17 17 15 14 15 16 18 18 16 13 11 10 8 7 6 7 10 13 14 14 13 13 13 13 13 14 15 15 16 16 15 14 14 13 13 13 13 12 12 12 12 12 11
45 44 42 41 39 38 37 36 34 33 33 34 34 34 33 31 29 27 25 23 22 21 19 18 17 15 14 13 14 14 14 12 12 12 12 12 12 12 13 14 16 17 17 17 16 15 14 14 16 17 17 16 13 11 10 8 7 7 9 12 14 15 14 13 13 14 14 15 15 16 16 16 16 15 14 14 14 13 13 13 13 13 13 13 12 12
43 42 40 39 38 37 35 34 32 31 31 31 32 32 31 29 26 24 23 21 19 18 17 16 15 14 13 12 13 14 14 13 13 14 14 14 14 14 14 16 17 18 17 17 17 17 16 16 17 17 16 15 13 11 10 8 8 8 11 14 15 16 15 14 14 15 15 16 17 17 17 16 16 15 14 14 14 14 13 13 13 13 13 13 13 13
39 37 36 35 34 34 32 30 29 28 29 29 30 29 27 25 23 21 19 18 16 15 15 14 14 13 13 13 14 14 14 13 13 14 14 14 14 15 15 17 18 19 18 18 19 19 19 18 18 17 15 14 13 11 10 9 10 11 14 16 17 17 16 16 16 16 17 17 17 17 17 16 16 15 15 14 14 13 13 13 13 13 13 14 14 14
34 32 31 30 29 28 26 25 25 25 26 26 25 24 22 20 18 16 15 14 13 13 13 13 13 13 14 14 14 14 14 14 14 14 14 14 15 15 16 17 19 19 18 19 19 20 20 19 18 16 15 14 13 12 12 11 12 14 16 18 18 18 18 17 17 17 18 18 17 17 16 16 16 16 15 15 14 14 13 13 13 13 14 14 14 15
31 29 27 25 24 24 23 23 24 24 24 24 22 21 19 18 16 14 13 13 12 12 12 12 13 15 15 15 15 15 15 15 14 14 14 15 15 15 16 17 18 18 18 19 19 19 19 18 17 16 15 14 14 14 14 14 15 17 18 19 19 19 19 18 18 18 18 17 17 17 17 17 17 17 17 17 16 16 15 15 15 15 15 15 15 15
29 26 24 24 24 24 24 24 24 24 24 23 22 20 19 18 16 15 14 13 13 13 14 15 16 17 17 17 16 16 15 15 15 15 15 15 16 16 16 17 17 17 17 18 19 19 18 18 17 17 16 16 16 16 17 17 18 19 19 20 20 19 19 19 18 18 18 17 17 17 17 17 18 18 18 18 18 18 18 17 17 17 17 17 17 17
27 25 25 25 25 26 26 25 25 24 23 22 21 20 19 17 16 15 15 15 15 16 17 18 19 19 18 17 17 16 16 16 15 15 14 15 16 16 16 17 17 17 17 17 18 18 18 18 18 18 18 18 19 19 19 19 20 20 20 20 19 19 19 18 18 18 18 18 17 17 17 18 18 18 18 19 19 19 19 19 19 19 19 19 19 18
27 27 27 27 27 26 26 25 24 23 22 21 20 19 17 16 15 15 16 17 18 19 19 20 20 19 18 17 17 16 16 16 15 15 14 15 16 16 17 17 17 17 17 17 17 18 18 18 19 19 19 20 20 20 20 20 20 20 20 19 19 19 18 18 18 18 18 18 18 18 18 18 18 18 18 18 18 19 19 20 20 20 21 21 21 20
29 29 28 28 27 26 24 23 23 22 21 20 18 17 16 15 15 16 17 17 18 19 20 20 20 20 19 18 17 16 16 16 15 15 14 15 16 16 17 17 18 17 17 18 18 18 18 19 19 20 20 20 20 20 20 19 19 19 19 19 18 18 18 18 18 18 19 19 19 19 18 18 18 18 18 18 19 19 19 20 20 21 22 22 23 23
29 29 28 26 25 24 23 22 21 20 19 17 16 15 15 15 15 15 15 16 17 19 20 20 20 19 18 18 17 16 16 15 15 15 15 15 16 16 16 17 17 18 17 17 18 18 18 19 19 19 19 19 19 19 19 18 18 18 18 18 19 19 19 19 19 19 19 19 19 19 19 19 19 19 19 19 19 19 20 20 20 21 21 23 24 24
30 28 27 25 24 23 22 21 19 18 17 16 16 16 16 16 16 15 15 16 17 19 20 20 19 18 18 17 17 17 16 16 16 16 16 16 16 16 16 16 17 17 17 17 17 17 17 18 18 18 18 18 18 18 18 18 18 18 18 18 19 19 19 19 19 19 20 20 20 20 20 20 20 20 20 20 20 20 19 20 20 20 21 22 23 24
29 28 26 24 23 22 21 19 18 17 16 16 16 16 17 17 17 18 18 18 18 18 19 18 18 17 17 17 17 17 17 16 16 16 16 16 16 16 16 16 16 16 17 16 16 16 16 17 17 17 17 17 17 17 17 17 17 17 18 18 19 19 19 19 19 19 19 20 20 20 19 20 20 20 20 20 20 20 20 20 20 20 21 21 22 23
28 26 24 23 21 20 19 18 17 16 17 17 17 18 18 18 18 18 18 18 18 18 18 18 17 17 17 17 17 17 17 16 16 16 16 15 15 15 15 15 15 15 16 16 16 16 15 16 17 16 16 16 16 16 16 16 16 17 17 17 18 18 18 18 19 19 19 19 19 19 19 19 20 20 20 20 20 20 20 20 20 21 21 21 22 23
24 23 21 20 19 18 18 17 17 17 18 18 19 19 19 19 18 18 18 18 18 18 18 17 17 17 17 16 16 16 15 15 15 16 16 15 15 15 15 15 15 15 15 15 16 16 15 15 15 15 15 15 14 14 15 15 15 15 16 16 17 17 18 18 18 18 19 19 19 19 19 19 19 20 20 20 20 20 20 20 20 21 21 22 22 22
21 20 20 19 19 19 19 19 19 20 20 20 20 20 20 19 18 18 17 17 17 17 17 17 17 16 16 15 15 14 14 14 14 15 15 15 14 14 14 14 14 14 14 15 15 15 15 15 15 14 14 13 13 13 13 14 14 15 15 16 16 17 17 18 18 18 18 19 19 19 19 19 19 19 19 20 20 20 20 20 20 21 21 21 22 22
21 21 20 21 21 21 21 21 22 22 21 21 21 20 20 19 18 17 17 16 16 16 16 16 16 16 16 15 14 14 13 14 14 14 14 14 14 14 14 14 14 14 14 14 14 14 14 14 14 14 13 13 13 13 13 13 14 14 15 15 16 16 17 17 17 18 18 18 18 18 18 18 18 18 19 19 19 19 19 19 19 19 20 20 21 21
22 22 22 22 22 22 22 22 23 23 22 21 21 20 19 18 18 17 16 16 16 15 15 15 15 15 15 14 14 14 13 14 14 14 14 13 13 13 13 13 13 13 13 13 13 13 13 13 13 13 13 12 12 13 13 13 13 14 14 15 15 16 16 16 16 16 17 17 17 17 17 17 17 17 17 17 17 17 17 17 17 18 18 18 19 20
23 24 24 23 23 23 23 23 22 22 22 21 20 19 19 18 18 17 17 16 16 15 15 14 14 14 14 14 13 13 13 13 13 13 13 12 12 12 12 12 11 11 11 11 12 12 12 12 12 12 12 12 12 12 12 12 13 13 14 14 14 14 15 15 15 15 15 15 16 16 16 16 16 16 16 16 16 16 16 16 16 16 16 17 17 18
24 24 24 23 23 22 22 22 22 21 21 20 20 19 19 18 18 17 17 17 16 16 15 14 14 14 13 13 13 13 13 12 12 12 12 12 11 11 11 11 10 10 10 10 11 11 11 11 11 11 11 11 11 11 11 11 11 12 12 13 13 13 13 13 13 13 13 14 14 14 14 14 14 14 14 14 14 15 15 15 15 15 15 15 15 16
24 24 24 23 22 22 21 21 21 21 20 20 19 19 18 18 18 17 17 16 16 16 15 15 14 14 14 13 13 12 12 12 12 11 11 11 11 10 10 10 10 10 10 10 10 10 10 10 10 10 10 10 10 10 10 10 10 10 11 12 12 12 12 12 12 12 12 12 12 12 12 13 13 13 13 13 13 13 13 13 14 13 13 13 13 14
24 23 23 23 22 22 21 21 21 20 20 19 19 18 18 17 17 17 16 16 15 15 14 14 14 13 13 13 12 12 12 11 11 11 10 10 10 10 9 9 9 9 9 9 10 10 10 10 10 10 10 9 9 9 9 10 10 10 9 10 10 11 11 11 11 11 11 11 11 12 12 12 12 12 12 12 12 12 12 12 12 12 12 12 12 12
23 23 23 23 22 22 21 21 20 20 19 19 18 18 17 17 17 16 16 15 14 14 14 13 13 13 12 12 12 11 11 10 10 10 10 10 9 9 9 9 9 9 9 9 9 10 10 10 10 10 10 9 9 9 10 10 9 9 8 8 9 10 10 10 10 10 10 11 11 11 11 11 11 11 11 11 11 11 11 11 11 11 11 11 11 11
23 23 23 23 23 22 22 21 20 20 19 19 18 18 17 17 16 16 15 14 14 13 13 12 12 11 11 11 11 10 10 10 9 9 9 9 9 9 9 9 9 9 9 9 9 10 10 10 9 9 9 9 9 9 9 10 9 9 8 8 8 9 10 10 10 10 9 10 10 10 10 10 10 11 11 11 11 11 11 11 11 11 10 10 10 10
23 23 23 23 23 22 22 21 21 20 19 19 18 18 17 16 16 15 14 13 12 12 11 11 11 10 10 9 9 9 9 9 9 9 8 8 8 8 8 8 9 9 9 9 9 9 9 9 9 9 9 9 9 9 9 9 9 8 8 7 8 8 8 9 9 9 9 9 9 10 10 10 10 10 10 11 11 11 11 10 10 10 10 10 9 9
23 23 23 23 23 22 22 21 21 20 19 19 18 17 17 16 15 14 13 12 12 11 10 10 10 10 9 8 8 8 8 9 9 8 8 8 8 8 8 8 8 9 9 9 9 9 9 9 9 9 9 8 8 9 9 9 9 8 7 7 7 7 7 8 8 8 8 8 9 9 9 9 10 10 10 10 10 10 10 10 10 10 10 9 9 9
23 23 23 23 22 22 21 21 20 19 19 18 17 16 16 15 14 13 12 12 11 10 9 9 9 9 8 8 8 8 8 8 8 8 8 8 8 8 8 8 8 8 8 9 9 9 8 8 8 8 8 8 8 8 9 9 8 8 8 7 7 7 8 8 8 8 8 8 8 8 8 9 9 9 10 10 10 10 10 10 10 10 10 9 9 9
23 23 23 22 22 21 21 20 19 19 18 17 16 15 14 14 13 12 12 11 10 9 9 9 8 8 8 8 8 8 8 8 8 8 8 8 8 8 8 8 8 8 8 8 8 8 8 8 8 8 7 7 8 8 9 8 8 8 8 8 8 7 8 8 8 7 7 7 7 8 8 8 8 8 9 9 9 10 10 9 9 9 9 9 9 8
23 23 22 22 21 21 20 19 18 18 17 16 15 14 13 13 12 11 11 10 10 9 9 8 8 8 8 8 8 8 8 8 8 8 8 8 8 8 8 8 8 8 8 8 8 8 8 8 8 7 7 7 7 8 8 8 7 7 8 8 8 8 8 8 8 8 8 7 7 7 7 7 7 7 8 8 9 10 10 9 9 9 9 9 8 8
22 22 22 21 21 20 19 18 18 17 17 16 15 14 13 12 11 11 10 10 9 9 9 8 8 8 8 8 8 8 8 8 7 8 8 8 8 8 8 8 8 8 8 8 7 7 7 7 7 7 7 7 7 7 7 7 7 8 8 8 9 9 9 9 9 8 8 8 8 8 7 7 6 6 7 8 9 10 10 9 9 9 8 8 8 8
21 21 21 20 20 19 18 18 17 17 16 15 15 14 13 11 11 10 10 10 9 9 9 9 9 8 8 8 8 8 8 8 8 8 8 8 8 8 8 8 8 8 8 8 7 7 7 7 7 7 7 7 7 7 8 8 8 8 8 9 9 9 9 9 9 9 9 9 9 8 8 8 7 7 7 7 8 9 10 9 9 9 8 8 8 7
21 20 20 20 19 18 18 17 16 16 15 15 14 13 12 11 11 10 10 10 9 9 9 9 9 8 8 8 8 8 8 8 8 8 8 8 8 8 8 8 8 8 8 8 7 7 7 7 7 7 8 8 7 7 8 8 9 9 9 9 9 9 9 9 9 9 9 9 9 10 9 9 9 8 7 7 7 8 9 10 10 9 8 8 8 7
21 21 20 20 19 18 17 16 16 15 15 14 13 13 12 11 11 11 10 10 9 9 9 9 9 8 8 8 8 8 8 8 8 8 8 8 8 8 8 8 8 8 8 8 7 7 7 6 6 7 8 8 8 8 8 9 9 10 9 9 9 9 9 9 9 10 10 10 10 10 10 10 10 9 8 8 7 8 8 9 10 10 9 9 8 8
Wind_Direction
230 230 234 238 240 240 239 238 237 237 237 238 238 239 240 239 240 240 242 243 244 246 247 247 246 245 244 244 246 248 252 256 261 267 272 277 281 284 286 289 290 290 290 290 290 289 288 287 286 286 284 281 277 271 261 233 195 174 162 162 179 195 204 213 218 221 217 120 110 112 115 125 134 140 149 172 201 219 230 224 201 197 203 209 213 214
231 231 234 237 239 239 238 238 238 237 238 239 239 239 240 239 239 240 241 242 244 245 246 246 245 244 243 244 246 248 252 256 262 269 275 279 282 285 288 290 291 291 291 290 289 288 287 286 286 284 281 275 267 256 238 210 191 181 178 180 187 195 200 205 211 218 220 198 161 137 128 131 138 148 161 175 187 190 180 172 175 185 195 201 204 208
232 232 234 237 238 238 237 238 238 238 238 238 239 240 240 239 239 239 240 241 242 243 244 244 243 242 242 243 245 248 251 255 262 270 276 281 284 287 290 293 294 294 293 291 288 286 286 286 285 281 273 263 251 237 219 201 192 189 189 192 197 203 209 218 229 235 231 222 209 186 159 144 140 144 152 163 175 180 176 169 168 172 180 189 197 204
232 234 236 238 239 238 237 237 238 238 238 238 238 239 239 239 239 239 240 240 241 241 242 241 241 240 241 243 245 247 250 254 260 268 276 282 287 291 295 297 298 297 295 291 286 284 284 284 281 273 260 246 232 218 206 197 193 194 197 202 206 211 219 229 240 247 245 235 228 220 210 194 175 159 154 157 165 174 179 179 172 164 158 165 185 209
233 236 238 240 240 239 238 237 238 238 238 238 237 237 238 238 239 239 239 239 239 239 239 239 239 239 240 242 245 247 250 253 259 265 273 281 288 294 299 302 302 300 296 290 283 280 280 279 271 257 243 228 217 207 200 195 195 197 201 206 210 215 221 231 242 250 252 244 237 232 229 226 223 216 200 186 179 180 185 189 189 184 174 171 183 204
233 236 239 241 241 240 238 237 237 238 238 238 238 238 237 237 238 238 238 238 238 237 237 237 237 238 240 242 245 247 251 255 259 263 269 277 285 292 298 303 304 302 297 288 280 275 274 267 254 240 230 219 211 205 200 198 198 200 203 208 212 217 224 233 243 251 255 251 243 237 235 236 239 242 241 237 232 226 220 216 216 220 228 233 232 232
232 235 238 242 243 241 238 236 236 237 238 239 239 239 238 238 238 237 237 237 237 236 236 236 237 239 241 243 246 249 253 257 260 262 266 272 278 285 292 298 302 301 296 285 275 268 262 249 235 227 221 213 207 203 202 202 203 205 209 213 218 224 231 238 246 253 256 253 245 239 238 240 245 251 255 256 256 255 252 245 240 241 249 257 261 261
231 233 238 243 244 242 239 238 237 238 239 239 239 239 239 238 238 237 237 237 236 236 235 236 238 240 242 245 248 252 256 258 260 262 264 268 272 277 283 290 296 298 293 281 268 257 245 229 219 215 209 202 198 198 201 204 207 211 218 226 231 236 240 244 249 254 256 255 249 243 243 245 249 255 261 264 266 265 263 259 255 254 257 263 268 271
229 232 238 243 244 242 240 240 241 241 240 239 239 239 239 239 239 238 237 236 235 235 236 237 239 241 245 248 251 254 257 259 260 261 262 264 267 271 275 283 290 294 290 275 259 244 229 216 210 205 196 190 190 194 201 206 210 217 228 237 241 243 244 244 247 252 257 259 260 258 258 258 260 263 267 270 271 269 267 266 265 264 265 267 269 269
229 231 238 242 245 245 243 242 244 244 242 240 239 239 239 240 240 239 237 236 236 236 236 237 239 242 246 250 253 255 257 259 260 261 262 263 264 267 271 278 286 289 285 269 250 233 219 211 204 197 190 188 192 199 207 207 209 219 235 243 244 243 242 242 244 249 256 264 269 272 275 275 275 275 276 278 279 278 276 275 274 274 273 272 271 269
230 234 239 242 245 246 246 245 245 245 243 240 239 239 239 238 238 238 237 236 236 237 237 238 239 242 245 249 252 254 256 257 259 261 262 263 263 264 268 274 281 285 279 260 240 225 214 205 198 192 192 193 200 210 215 211 207 214 240 247 245 241 240 240 244 251 261 269 272 274 276 278 280 281 282 283 285 287 288 288 287 287 285 283 280 276
233 238 242 243 243 244 245 245 244 242 241 239 237 236 236 237 236 236 235 235 236 237 237 238 240 242 245 247 248 251 253 255 257 259 260 260 261 262 266 273 279 279 270 249 230 217 208 198 193 195 198 199 210 224 228 219 212 216 240 249 248 244 244 246 250 258 267 272 275 277 278 279 281 282 284 286 288 291 294 295 296 296 296 295 293 289
236 240 243 243 243 243 243 242 240 239 238 237 236 235 235 237 238 238 234 233 234 236 237 238 240 243 245 245 245 247 249 251 254 257 258 259 259 261 265 272 277 274 257 232 216 206 200 194 197 203 206 207 217 235 240 229 219 218 233 246 250 250 250 254 258 263 268 273 277 281 284 286 287 288 288 288 289 291 293 295 296 297 298 297 297 295
235 239 242 243 243 243 243 242 241 239 239 239 239 240 242 243 243 239 234 232 233 236 238 240 243 245 246 246 245 245 245 247 251 255 257 258 258 260 263 268 269 262 240 216 205 199 195 196 204 212 215 215 222 235 241 233 224 219 226 240 250 254 256 259 262 265 268 272 277 282 286 289 291 291 291 290 289 288 289 290 290 292 292 293 294 294
233 235 238 240 242 244 245 245 245 244 243 242 243 245 246 244 241 237 233 233 236 240 243 246 247 248 248 248 247 246 244 244 247 251 255 257 257 258 260 259 255 243 223 206 199 196 195 200 211 218 220 219 222 229 234 229 222 218 223 236 248 254 256 259 262 266 270 274 278 281 283 286 289 290 291 290 289 287 285 284 284 285 286 288 289 289
233 233 234 238 242 246 248 249 248 246 244 243 245 246 243 238 237 236 235 237 242 246 248 249 248 247 247 248 247 245 242 241 242 246 250 253 253 252 252 242 230 220 209 199 195 194 196 205 215 220 220 219 220 222 224 221 217 217 224 238 249 253 254 256 260 266 272 276 279 280 282 285 287 289 290 290 288 286 284 283 282 282 282 283 284 284
235 235 235 239 243 247 249 250 250 247 243 243 243 242 240 237 236 236 236 239 243 247 248 247 244 240 240 241 241 241 239 237 239 243 245 244 243 242 239 224 211 204 200 195 192 194 199 211 216 217 216 215 215 216 216 214 215 219 233 249 256 258 257 259 263 268 274 278 281 283 285 287 289 290 290 289 287 285 283 282 281 281 281 281 281 281
239 239 240 242 244 246 247 248 247 244 242 241 240 238 236 235 234 234 235 238 241 242 243 241 239 238 238 236 235 236 237 232 233 239 240 234 231 230 224 211 203 199 196 193 192 194 203 212 215 213 212 213 213 214 213 213 214 224 243 259 265 265 264 265 269 273 277 281 283 284 286 288 289 290 289 288 287 285 284 284 283 283 283 282 282 281
242 243 243 244 245 246 245 245 244 243 241 238 236 233 231 231 231 231 232 234 236 236 236 235 236 239 242 239 235 233 233 226 226 231 230 221 218 218 213 201 196 195 193 193 193 196 203 212 215 214 213 214 216 217 217 215 217 229 249 262 267 267 267 268 272 275 278 280 281 282 283 285 286 287 287 287 287 286 286 285 286 286 286 286 286 285
245 245 245 246 245 244 244 244 245 244 241 237 234 230 227 227 228 228 228 228 229 230 231 234 237 241 242 238 231 227 227 222 220 220 220 212 207 206 204 196 191 190 189 191 193 195 200 210 216 217 217 218 220 222 222 219 221 235 252 261 264 266 266 268 270 273 275 276 277 278 280 281 283 284 285 285 286 286 286 286 286 287 287 288 288 288
246 246 247 247 246 245 245 247 247 244 240 233 228 225 224 225 225 224 223 223 224 226 231 234 236 239 237 229 221 219 221 218 212 211 211 206 200 196 194 191 190 189 190 193 196 198 201 208 215 218 219 221 223 225 225 224 230 243 254 259 262 263 265 266 267 269 271 273 275 277 279 281 282 282 283 284 284 284 285 286 287 287 288 289 289 290
246 246 246 247 247 247 247 247 244 238 232 225 221 220 221 222 221 221 221 222 225 229 232 232 231 231 228 221 216 215 216 211 206 206 207 200 194 191 188 188 188 189 191 196 200 202 204 208 213 217 220 223 225 227 229 231 238 248 254 257 259 261 263 264 265 267 269 272 274 277 278 279 280 280 280 280 280 281 282 283 285 287 288 289 289 290
242 243 243 244 244 242 240 237 232 225 219 216 216 217 219 219 219 220 222 224 226 227 228 226 225 223 220 215 212 210 207 202 200 201 201 195 192 190 186 188 189 191 193 197 202 205 206 209 213 218 222 226 229 231 234 238 244 249 253 255 258 259 261 263 265 268 270 273 275 276 277 277 276 275 275 274 274 275 276 277 280 282 284 285 287 288
238 237 237 236 232 227 222 217 213 210 208 208 209 211 212 213 212 212 213 216 218 219 219 218 215 214 212 207 203 200 198 194 193 195 195 193 191 189 186 188 191 194 196 198 202 206 209 213 218 223 228 232 235 238 240 243 246 249 251 254 257 259 262 265 267 270 273 275 276 277 276 275 275 275 275 274 274 274 274 275 277 279 280 282 283 284
231 228 225 221 217 211 206 203 202 202 204 205 207 208 209 209 208 208 209 210 211 211 211 210 209 207 205 202 197 194 194 189 190 193 193 192 190 187 186 189 194 198 200 202 205 209 213 217 221 226 231 235 238 241 243 245 247 249 251 254 257 261 264 267 270 273 275 276 277 277 277 278 279 281 282 284 284 285 285 285 285 285 285 285 285 285
220 215 210 207 204 201 199 198 199 201 203 206 208 210 211 211 210 210 210 210 210 208 206 205 205 204 201 197 193 191 190 187 188 191 192 191 190 188 187 189 195 201 203 207 209 212 216 220 223 227 231 234 236 239 241 244 247 249 252 256 259 263 266 270 272 275 276 278 279 280 281 282 285 287 290 292 294 296 297 297 297 296 296 294 293 291
206 202 199 198 197 196 196 197 198 201 204 207 210 212 213 214 214 212 211 212 210 207 203 202 201 200 197 193 191 189 187 185 187 190 191 191 191 191 190 191 195 202 206 210 212 215 219 222 225 228 231 234 236 238 241 245 248 252 255 259 262 265 268 271 273 275 277 278 280 282 283 285 287 289 290 292 293 295 296 297 298 299 300 299 298 297
196 194 193 193 194 195 196 197 200 202 205 208 210 212 214 215 214 213 212 212 208 204 202 202 200 197 194 191 189 187 185 185 187 190 190 191 193 194 193 193 196 202 207 211 214 217 220 223 226 229 232 235 238 240 243 246 250 253 257 260 263 265 268 270 271 273 275 277 278 280 282 283 284 284 285 285 286 287 288 290 292 293 295 296 297 297
190 190 191 192 193 195 197 199 201 204 206 208 208 209 210 210 209 208 209 208 204 200 199 200 200 198 194 191 188 186 186 187 189 190 192 193 194 195 195 196 198 202 207 211 215 218 221 224 227 230 233 236 239 242 244 247 250 253 256 259 261 264 265 267 269 271 273 274 276 278 280 281 282 282 283 283 283 283 284 284 285 287 288 289 290 292
187 189 190 192 194 197 199 201 203 205 206 206 204 203 203 201 199 197 198 199 199 198 198 199 198 197 194 191 189 189 190 190 190 191 194 194 195 195 196 198 200 203 206 210 213 216 220 224 227 230 233 236 239 241 244 246 249 251 254 257 260 262 264 266 268 270 272 274 276 278 279 281 282 283 284 285 285 285 284 283 283 282 282 283 285 287
187 189 192 194 196 198 201 202 203 204 203 201 198 197 196 194 192 190 190 191 193 195 197 197 196 195 193 191 192 193 194 192 190 191 196 195 195 196 198 200 202 204 206 209 212 215 219 223 227 229 231 234 238 240 243 246 248 250 253 256 259 261 263 265 267 269 271 274 275 277 279 280 282 283 284 284 285 285 284 284 282 281 281 281 281 283
188 191 194 195 197 198 199 200 200 199 196 193 191 190 190 189 189 189 189 189 190 192 194 194 194 193 192 193 195 196 195 193 192 193 198 196 196 198 200 201 203 205 207 210 213 216 220 224 227 229 231 234 236 240 242 245 248 250 253 255 258 260 262 264 266 268 270 272 274 276 277 278 280 281 282 282 283 283 283 283 282 282 281 281 280 280
188 190 192 193 193 192 192 192 191 190 189 188 187 187 187 187 187 188 189 189 190 191 192 192 192 192 193 195 197 198 197 195 195 197 200 199 199 200 202 203 205 207 209 211 215 218 223 227 229 231 232 234 236 239 242 245 248 250 253 255 257 259 262 264 266 268 270 271 273 274 276 277 278 279 280 281 281 282 282 282 282 281 281 280 280 279
185 186 186 186 185 185 184 185 185 185 186 186 186 186 186 186 187 188 188 189 191 191 192 192 191 192 193 196 198 199 199 198 198 200 202 203 203 203 204 206 207 209 211 213 216 220 224 228 232 233 234 235 237 239 241 245 248 251 253 256 258 260 262 264 266 268 270 272 273 274 276 277 278 279 280 281 281 282 282 281 281 280 280 280 280 280
181 181 181 182 182 182 182 182 183 184 185 186 186 186 185 186 186 187 187 188 190 191 192 192 192 192 193 196 199 201 202 201 200 202 205 206 206 207 207 208 210 212 214 216 218 221 224 228 232 235 236 237 239 241 243 246 249 252 255 257 260 262 264 266 268 270 272 274 275 276 278 279 280 281 281 282 282 282 282 282 281 280 279 279 279 279
177 178 179 180 181 182 183 183 183 184 185 186 186 185 185 185 186 187 187 187 188 190 191 192 192 192 193 194 198 201 203 202 202 204 206 208 209 210 211 211 212 214 216 219 222 223 225 228 232 235 238 239 241 243 246 248 251 254 257 259 262 264 266 268 270 272 274 276 278 279 281 282 282 283 284 284 284 283 283 282 281 280 280 279 279 278
176 176 178 180 181 182 183 183 184 184 184 185 185 184 184 184 185 186 187 187 188 189 191 192 193 193 194 195 197 199 201 202 203 205 207 209 211 212 213 214 215 216 218 221 224 226 227 229 232 236 238 240 242 244 248 251 253 256 258 261 263 265 267 269 272 274 275 277 279 281 282 284 284 285 285 285 285 284 284 283 282 281 280 280 279 278
177 177 177 179 180 182 182 182 182 183 183 184 184 183 183 184 185 186 188 188 189 190 191 192 193 194 196 197 199 200 201 202 204 205 207 209 211 212 213 215 216 218 219 222 224 227 228 230 231 233 236 240 243 246 248 252 255 257 260 263 265 267 269 271 273 275 277 279 280 282 283 284 285 285 285 285 285 285 285 285 284 283 282 281 280 279
178 177 177 177 178 180 181 181 181 182 183 183 183 183 183 184 185 187 188 189 190 191 192 193 194 195 197 198 200 201 202 203 204 205 207 209 211 212 213 215 217 219 220 222 224 227 229 230 231 232 233 236 240 244 248 251 254 258 262 267 270 272 273 275 276 278 279 281 283 284 285 285 286 286 287 287 287 287 287 287 287 286 285 284 282 281
177 176 175 175 176 177 179 180 181 181 182 183 183 183 184 186 187 189 189 190 191 192 193 193 195 195 197 198 199 200 202 203 204 206 207 209 211 213 214 216 218 221 222 224 226 228 231 233 234 236 236 236 238 242 247 250 253 256 261 268 273 276 278 280 281 282 283 284 285 286 287 288 289 289 289 289 289 289 289 289 289 289 288 286 284 283
176 175 174 174 174 175 177 179 180 181 182 183 184 185 186 188 189 190 191 192 193 194 195 196 197 198 199 200 200 201 203 204 206 207 209 210 212 214 215 217 220 222 224 226 228 230 232 234 237 239 241 241 242 245 248 250 252 255 258 261 266 272 277 280 282 283 284 285 286 287 288 289 291 291 292 292 292 292 292 292 292 291 291 289 287 285
175 175 175 175 174 175 177 178 180 181 183 184 185 186 187 189 190 191 192 193 194 196 198 199 200 202 203 204 205 205 206 207 208 209 210 211 212 213 214 216 219 221 224 226 228 230 232 233 235 238 240 242 244 247 250 253 255 256 257 256 261 267 273 277 279 281 282 283 285 286 288 291 292 293 293 294 294 294 294 294 293 293 293 293 292 289
176 176 176 176 176 177 179 180 180 181 183 185 186 186 188 189 190 192 194 195 196 197 199 201 202 204 206 208 209 209 210 210 210 209 209 209 209 210 211 214 216 219 221 224 226 228 231 232 233 235 238 241 244 246 250 255 258 258 258 258 260 264 269 274 277 279 280 282 285 287 290 292 293 294 295 295 295 295 296 296 296 296 297 297 296 294
176 177 177 177 178 179 180 181 181 182 183 184 184 186 187 190 192 195 197 198 200 201 202 204 206 208 209 210 211 211 210 209 209 207 206 206 206 207 208 210 213 216 218 221 223 225 229 231 231 232 235 238 241 245 250 255 259 260 261 261 261 261 264 270 275 278 280 282 284 287 289 292 294 295 296 295 295 295 296 297 298 299 299 299 299 298
177 178 178 178 179 179 180 180 181 181 182 183 184 186 188 191 195 198 201 202 203 205 206 208 209 211 212 213 213 211 209 208 207 205 204 203 204 204 206 208 211 214 216 219 221 223 225 226 228 231 234 236 239 243 248 254 259 262 263 263 263 262 263 267 271 275 278 281 283 286 289 292 295 296 297 297 297 297 298 299 300 301 302 302 302 302
178 178 178 178 179 180 180 180 180 180 181 183 185 187 190 193 197 200 203 204 205 206 209 211 211 213 215 216 216 214 211 208 205 203 201 201 202 203 205 207 210 212 214 217 220 222 224 225 227 230 234 237 240 243 247 252 256 260 263 265 265 265 266 268 271 273 275 279 282 286 289 293 296 298 300 300 300 300 300 301 302 303 303 304 304 305
180 179 179 179 178 178 179 179 180 180 181 182 184 187 190 193 196 200 203 204 205 207 208 211 212 214 216 218 218 217 214 210 206 202 200 200 200 202 204 207 210 212 214 215 217 220 223 225 227 230 233 237 241 246 250 253 255 258 261 265 268 270 271 272 274 275 276 279 282 285 289 293 297 301 302 303 303 302 302 303 304 304 305 305 306 306
181 180 179 179 178 177 177 178 180 181 181 182 184 187 189 192 196 199 201 203 204 205 207 210 213 215 218 220 221 219 215 210 205 202 201 200 201 202 204 206 209 211 214 215 217 219 221 224 227 231 235 238 243 248 254 257 257 257 260 264 268 271 274 276 277 279 280 281 282 283 286 290 294 299 303 304 304 303 303 304 305 305 305 306 306 305
181 180 180 179 179 178 178 179 181 182 183 184 185 186 188 192 196 200 202 202 202 203 206 210 213 216 218 221 222 220 218 213 208 204 203 203 203 204 205 207 209 211 213 216 218 220 223 227 231 235 239 242 247 252 258 260 261 261 261 263 266 268 272 275 278 281 283 284 284 285 286 288 290 293 297 302 303 303 303 303 304 305 306 306 306 305
180 180 180 180 180 181 182 183 184 185 186 188 188 189 191 194 198 202 204 203 202 203 206 210 213 214 215 217 219 220 219 217 213 210 207 205 205 205 205 207 209 210 212 214 217 220 223 229 235 242 247 249 250 253 258 262 264 265 264 264 264 265 268 273 277 281 283 285 287 288 289 289 290 291 294 298 300 302 302 303 303 304 305 306 306 305
179 179 180 181 182 184 186 188 189 190 191 192 193 194 195 198 202 206 208 206 204 204 207 210 212 213 212 212 214 215 216 216 214 211 208 207 205 203 204 206 208 209 210 212 215 218 221 227 236 245 252 256 256 254 254 260 264 266 266 265 265 265 266 270 274 278 282 284 286 287 289 290 292 293 295 296 297 299 300 301 302 303 303 304 304 304